Wind_Speed
9 8 7 13 14 11 13 12 11 12 11 10 9 8 5 7 7 7 7 7 8 8 6 6 8 7 2 2 3 2 1 1 2 3 4 5 5 5 5 6 5 5 5 4 4 4 4 4 4 2 2 3 4 5 5 4 4 4 3 2 3 3 2 1 1 3 4 5 5 6 6 6 6 7 7 8 7 7 7 7 8 9 10 10 11
6 6 7 11 15 16 14 11 12 14 13 10 9 8 6 6 6 6 5 6 8 9 7 6 6 6 4 4 4 3 1 1 1 2 4 5 6 5 4 4 5 4 4 4 4 4 4 4 4 3 2 2 3 5 5 5 5 5 5 4 5 5 4 2 1 2 3 4 5 5 5 5 5 6 6 7 7 7 6 6 7 7 8 9 11
6 8 11 11 11 16 13 11 13 13 13 10 9 9 6 6 5 5 4 3 5 7 6 5 5 5 6 6 5 4 3 3 3 3 4 6 7 6 4 3 2 3 3 4 4 4 4 4 5 4 3 4 4 4 6 6 6 6 6 6 6 6 4 3 2 1 1 3 4 4 4 4 4 5 5 5 6 6 6 6 6 7 8 9 10
7 10 14 9 6 10 8 9 12 14 13 11 11 9 5 3 2 3 5 3 4 5 4 3 4 4 4 5 4 4 5 5 4 4 5 5 7 7 5 4 3 3 3 4 4 5 5 5 5 4 3 5 6 5 5 5 6 7 7 8 8 7 5 4 4 3 1 1 2 3 3 3 3 3 3 4 5 5 5 5 6 6 7 8 9
6 8 10 7 5 6 6 5 9 14 15 12 11 10 8 7 6 5 4 4 4 4 2 1 1 1 2 3 3 4 4 4 4 5 6 6 6 8 7 6 7 5 5 4 4 6 7 7 7 6 4 4 5 6 7 5 6 8 8 8 9 8 8 6 5 5 4 2 0 1 2 3 3 2 2 2 2 3 4 4 5 5 6 6 7
4 4 4 5 4 3 5 2 6 13 13 11 12 12 12 11 10 7 4 4 3 1 2 3 2 2 1 2 2 3 3 3 4 5 6 7 6 7 7 8 8 7 7 6 5 6 8 9 9 8 7 6 5 6 8 7 6 8 8 9 10 9 10 9 7 6 5 4 3 2 1 1 2 2 2 1 1 1 2 3 3 4 4 4 5
4 2 1 2 5 3 4 2 5 11 11 10 11 13 13 11 10 9 6 5 5 2 3 3 2 0 1 2 2 2 3 5 6 5 5 7 8 8 8 8 8 8 9 9 8 8 8 9 10 10 9 8 7 6 8 8 6 6 6 8 9 9 10 10 9 8 6 6 5 4 4 2 1 1 1 1 0 1 1 1 2 2 3 3 4
5 4 2 2 6 6 4 5 8 12 11 9 10 12 13 12 12 12 10 8 6 4 4 5 6 5 5 3 1 2 4 6 6 6 7 7 9 9 10 10 10 10 10 10 10 10 10 10 10 11 11 10 10 8 7 8 7 5 4 5 8 8 9 10 11 10 8 7 7 6 6 6 4 2 1 1 1 1 2 2 2 2 2 3 3
5 6 4 2 6 8 6 6 8 12 13 11 11 11 12 14 13 13 12 10 8 5 6 8 8 8 8 5 3 2 2 4 6 6 7 7 8 9 10 11 11 12 11 10 10 11 12 12 12 12 12 12 11 10 8 8 9 9 6 5 6 6 7 9 11 12 11 9 9 8 8 8 7 5 3 2 2 2 3 3 3 3 3 3 3
6 6 4 3 4 7 7 6 6 10 13 12 10 10 12 13 11 13 13 10 9 7 7 9 7 6 7 5 4 5 5 4 3 4 5 6 7 7 8 10 11 13 12 10 10 11 12 13 14 13 13 13 13 12 10 10 11 12 10 8 7 7 7 7 8 11 12 11 11 10 9 9 8 6 4 3 2 2 3 3 4 4 4 3 4
6 6 4 4 6 8 6 6 6 8 11 10 9 10 12 13 12 12 13 10 8 8 9 10 7 5 6 5 3 5 5 5 5 4 4 5 6 7 7 9 11 11 12 12 12 12 12 13 15 16 15 15 15 14 13 12 12 13 13 11 10 9 8 8 8 9 11 12 12 11 11 11 9 7 6 4 4 3 3 4 4 4 5 5 5
6 6 4 4 6 7 6 6 6 7 10 9 9 9 12 14 13 11 10 7 7 7 10 10 7 5 4 3 2 3 5 4 5 6 6 6 6 7 7 8 9 7 8 11 12 13 12 12 14 16 17 16 16 16 16 15 14 14 15 14 13 12 12 12 12 10 11 12 12 12 12 13 12 10 9 7 6 5 5 5 5 5 5 6 6
6 5 5 7 7 5 6 7 6 7 9 10 10 9 10 10 11 9 7 6 7 7 9 8 5 4 3 2 2 1 2 3 3 5 7 8 8 7 7 7 8 7 7 9 11 13 13 13 13 16 17 17 17 18 18 18 17 16 16 16 15 15 16 17 15 13 12 12 12 13 13 14 14 13 12 11 9 7 7 7 6 6 6 6 6
6 5 4 6 6 4 4 5 5 6 7 9 10 8 8 7 8 9 8 8 7 7 9 8 4 4 3 2 2 0 1 1 2 5 6 6 8 7 5 6 9 11 10 9 11 13 12 12 13 16 18 18 18 19 20 20 20 19 18 18 17 17 18 18 18 17 15 14 13 13 14 15 15 15 14 13 12 10 9 8 8 8 8 7 7
6 5 4 4 3 3 4 3 3 4 5 7 9 8 7 8 8 9 9 9 7 5 9 10 7 5 4 3 2 1 1 0 1 4 5 5 6 6 4 4 7 9 10 9 11 13 13 12 11 12 15 18 20 20 22 21 20 20 21 21 19 18 18 19 19 19 17 15 14 13 14 15 16 15 15 15 14 13 12 11 10 9 9 8 8
8 7 6 5 4 4 4 3 3 2 3 4 6 6 6 7 7 8 9 7 6 6 8 9 9 7 3 1 0 0 2 2 1 2 4 5 5 5 6 4 3 6 8 9 10 11 11 13 13 13 13 16 16 14 18 21 20 20 21 22 22 21 19 19 20 20 18 17 16 16 15 15 16 15 15 15 15 14 14 13 12 11 10 10 9
9 9 8 6 6 6 5 4 4 3 3 5 6 7 6 6 6 7 7 6 6 7 8 9 10 7 2 2 0 1 1 2 2 1 2 4 5 5 6 4 3 5 8 9 9 8 9 11 13 15 15 15 15 12 13 16 19 21 22 22 23 23 22 20 20 20 20 20 19 18 18 18 17 17 17 16 16 16 15 15 14 13 12 11 10
10 10 9 8 7 7 6 7 7 6 6 6 7 6 5 6 6 6 4 4 5 4 4 7 8 7 4 2 2 2 1 1 2 1 2 4 5 6 6 5 6 7 9 12 10 7 9 9 10 12 12 13 15 16 16 15 15 18 21 21 21 22 24 22 21 21 21 22 22 21 20 21 20 20 20 19 18 18 17 17 17 16 15 13 12
10 10 10 9 9 9 9 9 7 6 8 9 8 5 4 5 5 4 4 4 3 5 4 4 4 5 6 5 5 3 2 1 1 1 2 3 5 5 6 6 8 10 11 13 12 11 10 8 7 7 7 8 10 12 16 17 16 16 18 20 19 20 21 22 22 22 23 23 24 24 23 23 23 23 22 22 22 21 20 20 19 18 17 16 15
10 11 11 10 10 10 10 10 8 9 9 9 8 10 9 8 7 6 8 9 7 6 8 8 6 4 4 3 2 2 3 2 3 2 2 2 2 3 5 7 9 10 10 12 12 12 11 9 8 7 5 6 7 8 11 13 15 16 17 18 19 20 20 20 22 22 23 24 25 26 26 24 24 24 24 24 24 23 23 22 22 21 20 19 17
11 11 11 11 11 11 11 12 13 13 12 10 9 11 11 9 8 9 10 10 10 10 10 8 7 6 3 2 3 2 1 1 3 3 2 1 1 2 3 5 7 9 10 11 12 12 11 10 10 9 8 7 6 7 8 9 12 15 16 15 16 19 20 20 21 22 22 23 24 25 25 24 25 25 26 26 25 24 24 24 24 23 22 22 20
11 11 11 11 11 11 11 11 12 13 12 11 11 10 11 11 10 10 11 10 10 10 12 12 9 8 9 8 6 5 3 1 1 1 2 3 2 2 4 5 6 9 11 10 11 11 10 10 9 11 12 11 9 8 8 9 12 13 13 13 14 17 20 22 22 21 20 21 23 24 24 24 25 25 26 27 27 26 25 24 24 24 24 24 23
11 10 10 10 11 11 11 11 11 12 11 11 11 11 11 11 11 12 12 12 11 10 12 12 11 10 11 12 11 9 7 6 6 7 6 3 2 3 7 8 9 10 10 9 10 9 8 9 11 12 13 13 11 9 10 10 11 13 12 12 12 13 15 19 20 18 18 20 22 23 24 24 24 24 25 26 27 27 26 25 25 25 25 24 23
10 10 9 9 10 11 10 10 11 11 10 10 11 10 10 11 11 12 12 12 11 11 11 11 11 11 11 11 11 11 10 9 9 9 9 8 7 4 6 9 8 10 12 11 11 10 9 10 12 12 12 13 13 11 12 12 10 11 11 11 12 12 12 14 17 17 17 18 19 20 22 23 24 25 25 25 25 26 26 26 26 26 25 23 22
12 11 10 9 9 10 9 9 10 10 10 10 11 10 10 11 11 11 12 12 12 12 12 11 11 10 9 10 10 10 9 8 7 6 6 7 7 6 7 9 7 9 13 12 10 9 9 11 12 12 10 9 11 12 13 13 11 10 10 10 11 11 12 14 15 17 17 17 16 16 17 19 22 24 25 26 26 25 25 26 26 27 26 25 24
14 13 11 9 9 9 8 9 9 10 10 9 9 9 10 11 10 10 11 10 10 11 11 11 10 9 9 10 8 7 7 6 6 7 7 7 8 8 8 9 9 10 11 11 9 7 8 11 11 12 13 10 9 9 10 12 11 11 11 10 9 9 12 14 15 16 17 17 17 16 15 16 18 21 22 24 26 27 27 27 27 28 28 27 26
16 14 12 11 10 9 9 9 10 9 9 9 9 9 9 9 9 9 9 8 9 10 9 10 10 8 10 9 6 5 5 5 4 5 6 7 7 8 7 6 6 7 8 10 11 8 9 12 10 6 6 6 4 3 4 8 9 9 8 7 8 10 11 13 15 17 17 17 17 18 17 17 17 19 22 23 25 27 29 29 29 29 29 29 29
17 16 14 13 12 11 10 10 10 10 10 9 9 9 8 8 9 8 8 8 8 8 7 9 8 7 9 8 5 4 4 5 3 1 1 2 3 5 7 6 5 4 4 7 8 8 12 14 10 9 13 11 8 7 5 2 4 3 3 4 5 9 12 13 15 16 16 16 15 15 16 17 18 19 21 22 24 25 27 30 31 30 30 31 31
17 16 14 14 13 12 11 11 10 10 10 9 9 9 8 8 8 8 7 7 7 6 6 6 6 6 6 6 5 3 3 3 2 1 1 2 2 2 4 5 5 4 3 4 5 7 13 16 12 13 16 15 13 11 8 6 4 4 6 7 7 9 11 12 13 15 16 16 16 15 16 17 18 18 19 21 22 24 25 27 30 32 33 32 33
17 15 14 14 13 12 12 12 11 10 10 10 9 10 9 8 8 8 8 7 6 6 6 5 4 4 3 4 4 1 3 3 2 3 3 2 3 2 3 3 3 4 3 3 4 7 14 18 16 17 18 18 18 16 13 11 10 10 10 10 10 11 13 14 15 14 15 16 17 17 18 19 19 19 19 20 20 22 24 25 27 30 32 34 34
17 16 14 14 14 13 12 12 12 11 10 10 10 10 9 9 9 8 8 8 7 7 6 5 5 3 2 3 3 1 2 2 3 2 2 3 3 3 4 3 3 3 3 4 3 6 12 17 18 18 17 18 17 16 16 16 16 15 13 12 12 13 15 18 18 16 16 18 20 21 21 22 22 23 23 21 20 20 21 23 24 26 28 31 34
16 15 14 15 14 13 13 12 13 12 11 11 11 10 10 10 10 9 8 8 8 8 7 5 5 4 3 3 2 1 2 2 2 2 2 4 3 3 3 3 3 3 5 6 5 7 12 14 16 16 14 16 17 16 17 17 16 15 14 13 13 13 15 16 17 17 18 20 21 22 21 20 21 23 24 24 23 22 21 21 23 24 25 27 30
16 16 14 15 15 14 14 14 14 14 14 14 13 11 11 10 10 10 9 9 8 9 8 6 6 5 4 4 4 3 1 1 1 3 4 5 6 6 6 5 5 4 4 7 7 9 12 13 14 16 15 15 16 15 15 15 15 15 16 17 16 17 18 18 18 18 19 21 21 22 22 22 23 24 23 24 24 24 24 24 24 24 25 25 26
15 17 14 14 15 14 14 14 15 15 15 15 14 13 12 12 11 11 10 10 9 10 10 8 7 8 6 5 5 5 4 2 3 4 4 3 5 6 5 4 6 6 5 8 10 10 12 14 15 15 15 14 14 13 13 14 16 16 17 18 18 18 19 20 21 21 22 22 22 23 23 23 25 25 25 24 23 24 25 26 26 27 27 27 27
11 15 15 15 16 15 15 15 15 16 15 16 16 16 15 14 13 13 12 11 10 11 11 9 9 10 8 6 6 6 6 4 4 4 3 3 4 5 5 5 7 9 9 10 11 12 14 16 15 14 14 13 13 14 14 16 17 17 17 18 18 19 20 20 21 22 23 23 23 23 24 24 25 26 26 26 25 24 25 25 26 27 29 29 29
8 9 12 13 14 15 17 17 17 17 17 17 17 18 17 16 15 15 13 12 12 11 11 10 10 10 9 8 7 7 7 6 5 5 4 4 4 4 5 6 7 9 9 8 10 12 14 15 15 15 15 15 16 16 15 16 16 15 16 17 17 19 20 20 21 22 22 22 23 23 23 24 25 27 27 27 26 25 25 25 25 27 28 30 30
6 6 6 8 12 14 17 18 19 19 18 19 19 19 18 17 17 16 14 14 13 13 12 11 10 10 9 8 8 7 7 6 5 5 4 3 4 5 6 7 8 9 10 10 11 13 15 17 19 18 17 17 17 16 15 16 17 16 16 16 16 17 19 20 21 21 22 22 22 22 23 23 23 25 26 27 27 27 26 27 27 27 28 29 30
10 10 11 15 17 16 17 20 21 21 20 20 20 20 19 18 18 17 15 14 14 13 12 12 11 11 10 9 8 7 7 6 6 5 4 3 4 5 6 7 8 10 11 11 12 14 16 18 19 19 19 18 18 17 16 16 17 17 17 17 18 19 19 21 21 21 20 21 21 21 22 23 23 24 25 26 27 27 27 27 28 28 29 29 29
17 19 21 22 23 21 23 27 28 25 23 22 21 21 20 19 19 19 17 16 15 14 13 12 11 11 11 10 8 8 8 7 6 6 5 4 4 4 5 7 8 9 10 11 12 14 16 18 19 19 19 18 18 18 16 16 16 16 18 19 19 17 17 18 20 20 20 22 23 24 23 23 24 26 26 26 24 23 24 25 25 26 26 28 28
22 26 26 26 28 27 28 31 31 26 25 24 22 22 21 20 20 20 19 18 16 15 15 13 12 11 10 9 8 8 9 9 9 9 8 6 6 7 7 7 7 9 9 10 12 14 15 17 18 18 19 18 18 18 17 16 15 14 15 17 18 19 20 20 21 22 23 24 25 25 25 25 25 26 29 30 27 23 22 23 22 22 23 25 27
19 22 24 26 28 28 29 31 30 26 25 26 26 25 23 22 22 22 21 20 18 17 16 14 12 11 11 10 9 9 10 12 12 11 9 8 10 11 10 9 8 8 8 9 10 12 14 16 17 18 18 18 18 18 17 15 15 16 17 19 21 22 22 23 23 23 23 24 23 23 23 24 24 24 25 29 30 26 25 24 21 19 21 23 25
19 21 24 25 24 24 28 30 30 28 26 25 25 26 26 26 24 23 22 21 20 19 17 15 14 12 11 10 11 13 13 13 12 12 11 10 9 10 10 11 10 9 9 10 11 12 13 15 16 16 17 17 18 18 19 18 18 18 18 18 19 20 20 20 20 19 19 19 19 19 20 19 20 21 20 20 22 23 24 26 23 20 19 21 23
17 17 19 21 21 23 26 28 29 30 30 27 25 25 26 27 25 22 21 20 19 16 15 15 14 13 12 11 12 14 15 14 13 13 13 9 7 8 10 10 10 10 10 12 13 13 14 14 15 16 16 16 17 18 20 20 19 19 19 19 18 19 18 16 15 16 18 20 21 21 21 19 17 18 18 17 17 18 18 18 20 20 20 21 21
12 12 13 15 16 19 23 25 26 27 28 28 29 28 26 25 25 23 20 18 15 14 13 12 12 12 12 11 10 11 12 13 13 12 11 10 9 10 10 9 10 10 11 13 13 14 14 15 16 16 17 17 18 18 18 19 21 22 22 21 19 19 19 17 16 17 18 21 24 23 22 20 16 18 20 19 20 21 20 18 17 18 19 20 21
9 11 13 13 13 14 16 19 20 22 25 26 26 27 27 27 27 25 22 18 15 15 13 12 13 12 11 10 10 10 11 11 11 10 11 12 12 11 11 10 11 12 13 14 14 15 17 18 19 18 18 18 19 19 18 19 21 21 19 18 18 19 20 19 21 22 21 21 24 24 23 23 20 21 24 20 18 21 22 21 21 20 20 21 22
7 9 10 11 12 12 12 11 13 17 21 22 22 24 29 29 27 26 24 18 14 14 13 12 13 11 10 10 11 11 10 10 10 11 11 11 10 8 9 10 11 12 14 15 16 18 20 22 24 24 23 22 22 22 21 20 18 16 15 17 19 21 23 24 26 29 27 24 24 23 23 25 24 25 26 23 20 21 21 20 19 19 20 21 21
7 8 9 9 11 11 9 9 10 12 15 18 21 24 27 27 26 25 21 15 12 12 13 12 11 10 10 12 12 11 11 10 11 12 12 11 9 8 8 9 12 13 15 16 18 20 22 23 24 26 26 24 24 23 22 20 19 20 21 23 22 23 25 27 28 30 28 25 22 20 19 21 21 23 25 24 21 21 22 20 18 18 19 20 20
8 9 9 8 9 9 9 8 9 12 15 17 19 21 23 23 22 20 17 14 12 12 11 10 11 12 13 13 13 13 13 13 14 14 14 13 13 12 11 12 15 17 18 18 18 19 20 21 21 22 23 23 23 25 26 27 28 29 29 29 28 26 25 24 24 25 26 24 22 21 20 19 19 22 25 24 21 22 24 23 19 17 18 18 18
8 9 9 8 7 7 8 10 10 12 15 17 17 18 20 20 18 15 12 11 10 9 9 10 12 13 12 13 14 13 13 13 12 12 12 13 13 13 13 15 17 18 18 18 18 18 18 19 21 22 23 23 25 27 29 31 31 30 30 29 26 24 23 20 18 21 24 23 21 20 21 19 17 19 22 23 21 20 22 23 20 17 17 18 16
9 8 8 7 6 5 7 10 10 11 16 18 16 16 17 17 17 14 9 8 9 7 7 9 12 12 12 13 15 15 14 13 12 10 11 12 13 14 15 16 17 18 18 18 19 19 18 19 19 20 21 22 22 22 23 25 25 24 26 27 24 22 21 19 18 21 23 24 23 20 22 22 22 22 22 22 22 20 19 19 17 14 13 12 12
9 10 9 7 5 6 6 7 8 10 15 18 16 15 16 15 16 14 8 6 7 6 4 7 11 13 12 12 14 15 14 13 12 11 11 11 12 12 12 13 15 17 18 18 19 19 20 21 21 22 24 25 25 25 24 24 23 21 23 24 24 22 21 20 20 18 16 17 19 19 19 19 18 18 18 15 13 13 14 11 6 5 5 6 8
Wind_Direction
196 186 179 187 188 173 183 198 185 185 198 205 195 172 191 215 194 190 187 174 178 176 175 193 205 202 181 159 188 198 162 171 163 157 165 164 144 122 106 103 117 128 144 157 135 136 165 188 208 225 230 206 177 186 202 199 189 179 177 199 214 238 283 326 57 55 56 77 96 98 96 93 89 86 85 85 84 87 92 95 97 98 99 98 97
196 164 166 190 179 157 158 179 180 177 184 189 175 160 174 198 193 189 186 187 184 182 184 186 195 201 195 195 212 223 204 206 200 186 179 171 163 146 128 106 111 127 137 152 156 158 158 168 194 205 214 224 182 184 201 208 206 191 186 215 220 226 261 283 296 53 44 48 75 90 95 96 92 89 87 87 87 86 90 94 93 95 99 99 97
180 162 176 201 172 147 144 158 170 170 170 168 159 161 179 196 197 183 182 189 167 175 192 192 193 200 204 209 210 216 230 233 225 231 207 181 184 178 162 154 130 135 145 155 166 172 169 164 185 207 209 208 206 202 205 205 211 203 197 223 228 220 245 263 268 316 43 33 48 72 85 93 92 90 86 86 87 86 90 94 93 93 99 102 99
183 167 168 182 154 140 140 148 164 165 159 152 143 143 151 172 193 177 185 184 126 140 177 197 211 212 216 229 225 218 227 232 230 240 233 205 200 201 194 202 209 195 171 167 174 182 187 177 180 203 200 191 204 215 216 206 207 214 210 221 226 220 230 242 256 269 261 7 28 50 69 83 88 90 87 83 84 85 91 95 95 94 99 107 106
191 171 158 164 163 153 149 148 165 162 156 153 146 139 136 123 110 117 152 169 122 117 133 88 203 252 273 266 262 247 244 244 247 250 245 236 217 215 222 224 218 212 201 190 186 190 194 193 188 197 201 191 195 205 219 225 215 217 214 216 225 222 220 226 244 265 267 250 275 24 45 71 79 85 82 80 83 87 96 99 97 97 100 110 115
172 155 143 162 194 175 148 158 176 164 155 153 154 153 150 134 126 123 119 163 170 182 338 21 52 59 351 300 303 278 275 285 272 263 256 252 242 234 233 226 222 221 216 211 206 200 201 202 198 201 206 205 207 204 213 221 207 208 215 220 227 225 219 222 234 255 263 249 241 260 293 57 70 76 77 76 92 97 104 106 104 108 108 113 121
160 132 120 212 248 230 140 173 188 168 157 150 153 154 150 138 138 152 155 166 174 203 274 308 309 25 349 336 6 350 330 324 298 281 284 274 260 250 243 236 235 235 226 220 217 213 211 207 204 205 207 213 226 221 211 212 200 195 214 224 228 228 223 223 228 239 248 246 249 247 239 229 210 114 100 86 165 182 168 156 138 127 124 124 123
176 157 148 232 249 226 168 186 182 166 159 148 147 147 148 142 140 155 169 169 158 163 220 255 254 246 274 293 353 30 14 354 334 309 304 298 280 264 254 247 246 246 234 224 221 221 221 217 211 209 208 213 225 228 215 213 210 206 219 229 229 228 227 227 224 227 235 242 249 244 229 222 220 220 201 176 211 223 221 209 206 185 158 150 138
170 150 141 191 235 219 187 188 182 171 163 144 139 145 158 161 151 154 166 169 164 170 208 232 232 228 241 249 259 298 332 350 357 333 305 303 298 277 265 258 251 248 235 223 226 230 230 225 219 216 213 215 221 224 219 212 214 222 236 236 229 225 223 229 226 223 225 232 242 242 233 228 219 214 224 232 226 230 234 225 226 225 202 183 165
165 150 134 129 185 197 180 178 184 174 162 148 147 150 159 166 156 155 163 168 178 187 206 227 231 215 221 226 248 270 271 268 298 333 311 304 304 283 269 270 265 256 240 230 236 240 236 227 222 220 218 221 223 223 220 215 213 221 232 232 224 224 223 231 233 226 223 225 234 240 241 240 228 218 232 252 248 244 240 234 233 233 226 213 198
147 139 130 125 161 179 174 173 179 175 164 154 155 154 159 165 155 154 159 165 187 194 198 215 222 217 227 230 243 265 271 257 251 273 288 295 303 288 271 277 284 270 244 233 236 239 237 227 221 221 222 224 225 226 222 217 212 214 224 230 222 222 233 241 243 238 231 226 228 235 241 246 245 242 248 256 263 267 257 247 241 237 232 227 219
115 117 133 142 158 176 185 185 180 185 182 168 161 162 168 170 163 158 153 162 200 201 195 210 230 238 235 233 247 282 281 270 265 271 270 268 280 286 280 286 297 286 252 242 239 237 236 233 227 225 225 227 229 228 223 219 215 211 216 226 225 224 236 246 249 248 243 235 229 232 238 245 251 255 256 256 260 267 264 260 253 245 240 233 228
100 109 145 151 150 165 178 180 176 190 196 186 185 179 172 175 173 174 175 196 229 228 207 206 228 229 201 225 257 309 290 272 263 255 253 253 253 266 280 295 311 314 288 263 251 243 236 237 239 233 230 231 233 230 225 220 217 215 215 220 223 222 229 240 247 246 245 244 236 233 236 241 249 254 257 258 258 260 260 261 259 252 248 241 233
91 100 133 149 150 145 137 158 176 195 206 199 203 195 178 187 185 187 201 214 236 240 211 195 195 203 182 198 221 224 348 358 254 225 216 230 236 241 264 301 326 332 318 288 273 266 250 245 245 239 236 235 236 233 228 223 219 220 220 222 224 221 222 230 241 246 245 244 239 235 237 240 248 253 256 257 258 258 255 255 257 255 254 251 242
82 95 99 104 119 120 113 128 155 180 200 196 206 203 188 200 196 195 206 216 237 230 205 205 209 201 177 183 183 172 202 144 272 218 198 217 229 223 239 292 328 330 321 305 294 285 267 261 254 243 242 239 240 242 235 228 224 226 226 227 229 227 223 222 232 244 246 243 240 236 237 240 247 253 255 256 256 256 255 253 254 253 254 254 250
68 80 87 76 61 62 90 108 111 142 168 168 194 198 189 200 202 206 210 213 225 211 209 219 216 202 169 154 126 214 213 172 177 215 210 232 230 215 220 240 315 316 308 307 304 295 280 276 267 258 257 246 243 249 242 234 233 234 233 233 234 233 229 223 225 234 239 241 241 238 238 242 247 252 253 254 254 254 253 253 252 251 251 251 250
74 80 87 85 78 64 76 105 104 116 132 140 163 170 175 191 197 207 212 214 213 206 210 212 212 213 183 64 53 298 302 172 177 217 224 234 230 215 217 229 281 290 296 305 308 302 291 287 276 268 269 255 243 240 237 239 241 242 240 240 240 237 235 230 228 231 233 236 239 239 240 243 247 252 252 252 252 252 252 253 253 251 248 248 247
85 88 91 92 87 66 68 84 76 69 74 90 120 141 168 178 179 187 190 205 208 198 213 220 225 229 222 235 211 188 209 197 216 258 234 237 238 239 244 257 273 278 292 301 301 289 282 285 279 276 279 266 254 245 239 241 248 251 248 246 246 242 239 236 234 236 237 237 239 240 240 241 245 250 252 253 252 252 253 253 254 253 250 248 245
88 90 91 91 83 64 65 76 76 72 67 70 79 74 85 109 118 140 116 98 151 155 158 192 220 221 220 241 237 219 247 238 207 254 245 238 233 252 273 278 279 279 282 289 293 288 284 285 275 278 286 278 271 260 250 249 252 255 253 250 250 247 243 240 237 239 244 245 244 243 241 240 244 248 250 253 253 252 253 255 255 255 251 248 246
90 89 86 85 83 75 69 68 77 89 81 73 70 63 70 80 75 85 89 77 81 114 137 152 161 169 195 225 237 259 274 244 219 240 278 273 232 249 279 291 291 284 275 274 281 283 285 287 277 276 287 285 281 271 263 260 257 254 253 252 250 249 247 244 244 245 248 250 248 246 244 241 242 247 250 252 253 252 252 254 255 255 253 250 247
92 89 85 84 82 78 71 65 70 81 83 81 79 76 80 85 79 77 82 82 77 82 97 113 118 103 89 131 143 136 170 221 227 239 240 264 283 250 265 290 294 293 288 280 279 281 285 289 285 277 272 273 277 274 272 270 263 256 253 250 245 247 250 250 252 253 252 253 250 248 247 244 241 243 248 251 251 251 250 251 253 254 253 251 249
99 95 89 88 86 81 76 71 71 77 84 88 90 90 89 88 88 85 85 87 83 81 79 78 79 71 60 62 77 83 70 62 114 262 234 212 242 298 318 309 290 293 298 298 295 288 283 288 289 281 271 265 264 267 269 265 262 259 256 253 247 249 254 253 254 254 255 256 254 249 247 245 242 240 245 249 249 248 247 247 249 252 252 250 248
113 109 102 99 97 92 87 83 83 83 87 92 92 91 90 89 88 88 88 86 85 90 90 81 77 75 67 60 58 58 49 38 33 15 4 3 338 328 326 315 301 303 309 314 313 297 278 283 285 280 275 268 264 265 265 257 254 257 256 254 251 250 255 254 251 251 255 260 257 251 247 244 242 239 241 246 247 247 246 245 246 248 248 243 238
133 125 120 117 109 105 101 97 96 94 95 98 98 94 93 93 90 88 89 88 87 90 92 89 84 78 70 64 62 60 54 41 29 22 20 9 348 317 314 323 322 320 320 315 307 296 280 279 280 277 275 268 256 254 260 254 249 255 256 258 258 256 258 257 252 252 258 262 259 252 247 243 240 238 237 240 244 245 245 244 244 244 241 235 231
151 146 139 131 122 118 116 114 113 108 105 104 102 103 101 97 94 91 88 85 84 83 82 84 84 81 76 72 68 63 58 48 30 20 17 1 345 330 328 338 334 313 312 306 298 298 292 286 281 273 272 265 246 245 255 250 241 247 254 260 262 259 262 264 261 259 259 262 261 256 251 246 243 241 239 238 239 241 242 242 242 243 241 236 232
161 157 151 145 137 132 130 128 126 121 118 117 113 112 109 104 99 94 91 90 90 88 87 85 83 87 89 80 69 66 63 52 32 18 16 11 4 359 345 334 321 307 310 313 311 312 309 311 303 276 264 262 252 250 247 232 230 246 255 262 268 266 270 271 270 268 264 263 262 259 256 252 248 247 248 245 241 238 238 240 241 242 243 241 237
167 164 159 156 151 148 145 138 136 134 131 130 125 118 114 114 112 107 104 103 97 92 93 93 86 88 96 90 75 69 69 70 49 12 17 24 10 358 345 331 324 319 323 329 329 330 331 331 333 333 322 312 307 296 252 228 232 248 256 260 266 269 274 277 276 275 273 271 269 263 260 258 254 252 253 253 248 242 239 238 239 242 244 243 241
171 169 165 164 163 160 158 152 149 147 140 137 136 133 129 127 124 119 113 107 100 95 91 91 86 86 97 100 96 74 58 81 88 355 23 50 20 360 348 345 343 333 330 337 337 344 352 344 336 1 17 18 26 35 26 325 257 256 282 289 290 288 284 278 275 274 272 273 272 267 262 262 262 260 257 255 253 251 245 239 237 240 243 243 242
173 173 168 169 171 167 165 163 159 157 152 151 152 149 147 143 139 136 129 123 123 122 110 98 92 88 87 91 104 87 30 63 79 359 92 96 73 54 2 353 348 339 336 341 335 328 341 347 339 344 356 355 350 353 3 3 348 356 342 316 305 301 293 282 272 268 268 270 271 270 267 264 264 265 265 261 257 255 253 247 241 239 241 243 244
174 173 170 173 174 171 173 171 167 168 165 165 165 161 161 159 155 153 150 148 145 136 128 124 119 107 93 89 98 58 6 29 359 354 36 39 37 30 351 349 346 344 346 329 320 314 327 337 339 341 344 342 340 335 331 327 317 321 323 309 298 291 291 290 281 272 268 266 266 268 270 269 266 264 265 266 263 257 254 252 249 245 243 243 244
174 171 171 176 177 176 180 179 178 179 177 177 177 173 173 170 167 168 164 163 158 151 154 158 151 141 132 116 99 51 333 338 313 321 353 342 354 352 332 333 328 327 325 308 293 300 318 328 328 329 332 330 330 329 324 318 312 312 313 309 304 295 292 291 284 277 272 269 270 271 272 271 269 266 264 263 265 261 255 252 252 250 249 247 246
172 170 176 181 181 184 186 187 188 188 187 189 186 183 184 179 176 179 175 173 172 169 173 173 168 173 180 171 164 237 295 335 319 277 285 291 303 315 309 309 300 286 288 288 277 286 301 310 313 315 318 317 315 316 317 314 313 313 306 296 289 283 287 290 286 282 279 278 277 276 274 271 267 265 262 261 261 261 257 254 252 252 251 250 250
174 172 180 187 187 190 193 195 196 195 194 195 193 191 193 189 187 186 180 181 187 182 180 180 180 190 200 199 207 229 257 359 320 275 275 264 263 269 255 245 256 252 265 281 283 290 293 294 300 302 302 305 307 307 308 307 305 304 297 291 285 280 282 285 283 282 280 279 277 273 269 266 264 264 264 263 263 263 260 257 255 254 253 252 252
183 179 184 192 194 196 203 206 204 203 203 200 198 197 198 198 197 195 187 188 195 188 183 191 195 193 198 210 208 204 214 247 268 279 299 292 284 287 274 264 282 284 287 294 295 298 297 296 297 296 292 294 298 298 298 299 299 298 295 293 290 286 284 282 280 278 276 276 277 276 272 268 266 263 261 262 265 267 266 264 261 258 256 255 254
200 194 193 198 203 207 212 216 213 211 210 208 205 202 203 203 201 202 198 195 201 195 187 198 204 194 194 208 209 202 209 229 242 255 283 287 291 308 309 305 299 291 283 282 283 281 284 289 292 292 292 292 292 292 291 290 291 291 290 288 286 285 284 283 282 279 276 275 276 276 273 270 267 262 260 261 263 266 270 270 269 265 260 259 258
236 225 210 210 220 220 216 218 220 219 216 215 214 208 207 208 204 205 204 200 205 204 197 202 205 195 191 200 208 207 207 213 226 245 258 258 264 290 305 302 299 299 297 292 288 284 284 290 295 296 296 294 291 291 290 289 289 289 287 285 284 283 282 282 282 280 279 277 275 273 271 270 266 259 257 258 259 263 268 271 271 270 265 261 259
288 287 258 259 261 244 230 224 223 224 220 217 218 215 214 214 209 206 207 207 209 208 206 206 203 196 193 202 210 207 203 208 223 239 245 255 273 286 298 299 300 306 310 308 303 299 296 296 296 297 296 294 292 291 290 289 287 285 283 282 283 284 284 284 282 279 276 275 276 276 274 274 271 263 259 260 263 265 267 269 270 270 267 263 261
292 277 264 278 282 272 262 251 238 231 226 221 219 217 216 218 214 210 210 210 210 212 212 209 206 206 204 208 213 207 205 215 224 234 247 263 276 284 294 299 299 304 308 308 303 299 296 293 294 295 294 292 289 287 288 287 284 283 285 285 281 278 277 277 280 281 278 276 276 273 270 269 266 264 262 261 264 267 268 271 272 269 265 263 262
267 257 251 260 266 262 260 257 248 235 227 224 223 217 214 217 217 213 211 210 209 212 214 209 208 212 210 207 210 209 209 217 221 221 222 228 244 265 286 295 298 301 304 304 303 301 299 296 293 292 291 290 288 286 286 286 282 282 286 286 283 284 284 284 288 292 289 286 285 283 281 276 267 262 260 257 258 264 269 272 274 272 266 262 262
243 245 244 245 248 249 251 253 249 238 228 226 225 219 213 216 218 214 209 208 208 209 210 211 211 210 206 203 209 213 213 217 218 213 210 222 251 266 273 283 293 299 302 302 303 304 303 300 297 295 294 293 291 288 286 283 278 277 285 295 304 308 304 298 295 294 290 288 289 290 291 287 277 268 263 257 253 258 266 270 272 272 268 263 260
233 241 243 239 241 247 254 255 250 242 235 230 226 220 215 214 214 212 209 209 210 207 203 205 210 210 208 208 210 212 218 223 222 222 234 256 271 274 273 274 278 288 298 303 306 308 307 305 303 303 303 300 298 299 300 297 294 294 297 300 302 301 298 294 292 291 288 284 283 284 286 287 282 277 269 259 252 254 262 263 262 266 269 267 262
241 244 243 238 239 248 257 260 252 243 238 233 225 219 217 215 210 209 211 210 208 205 201 201 205 206 207 211 214 215 221 229 233 243 259 268 270 271 273 275 276 281 290 298 304 302 300 299 297 298 302 300 300 305 309 309 308 308 307 304 298 296 296 293 291 294 295 295 296 294 292 291 287 282 275 263 256 259 262 259 256 261 268 269 266
247 249 242 237 240 246 250 254 251 242 238 236 227 219 220 217 208 207 211 209 206 203 199 199 201 201 204 212 219 221 224 234 244 255 264 268 273 280 279 276 276 277 284 292 296 293 289 289 289 291 295 297 299 305 309 315 319 320 321 321 318 316 312 305 301 301 303 314 325 322 308 301 305 303 292 280 280 285 280 270 261 258 260 263 262
251 257 252 248 252 250 244 243 244 239 234 232 230 229 228 218 207 202 200 198 199 201 200 202 205 204 204 211 222 226 229 237 243 249 255 258 272 284 279 270 269 273 282 287 286 283 279 279 282 285 288 293 299 301 303 311 319 321 321 321 324 328 327 322 316 306 300 310 323 324 309 297 305 319 311 295 290 293 294 291 282 268 262 262 259
252 252 253 257 265 266 255 246 245 242 234 228 229 230 223 210 201 195 190 187 193 199 202 206 208 205 201 206 222 229 231 237 239 240 249 257 267 272 264 259 265 272 280 281 278 277 274 270 270 274 279 286 291 293 295 301 310 315 317 318 319 324 325 320 314 305 300 307 317 319 309 296 293 305 309 302 294 291 288 285 282 278 271 263 256
264 256 249 246 254 266 270 253 239 238 233 225 220 216 207 199 195 191 185 182 188 197 205 213 216 219 221 222 230 234 234 240 243 243 245 250 258 263 255 256 265 272 279 282 283 282 277 269 265 266 270 276 280 285 288 291 297 305 311 312 312 312 311 306 303 299 295 300 310 308 299 293 290 291 294 294 293 293 293 287 281 277 270 259 251
261 265 258 245 241 251 267 256 226 215 214 211 206 200 193 189 189 186 181 180 186 197 205 213 221 231 233 231 234 237 238 243 249 249 244 241 248 261 267 269 273 276 279 282 285 286 282 275 270 269 270 272 274 276 277 277 282 290 297 300 300 302 302 298 295 295 293 294 299 295 283 284 287 285 286 289 287 289 296 295 285 274 263 254 249
259 265 264 253 240 237 247 248 224 202 197 196 193 188 184 185 186 181 181 186 190 193 199 210 222 227 230 233 237 239 242 247 251 251 249 249 251 257 268 276 278 278 278 280 283 283 281 278 276 276 275 275 273 272 271 275 281 287 290 292 293 294 295 293 289 289 288 287 286 285 283 285 284 281 285 289 287 284 287 289 284 273 260 250 247
262 261 260 261 261 248 234 225 213 201 197 195 191 186 188 191 186 176 179 188 188 196 215 227 228 228 234 243 243 242 245 250 253 251 252 255 258 263 271 276 278 278 278 282 285 283 280 279 280 281 281 280 278 276 274 275 278 283 285 285 286 285 283 282 279 277 277 275 275 283 293 296 291 288 291 295 294 284 279 280 278 265 251 246 247
265 262 262 262 256 230 208 206 207 204 198 195 191 190 196 201 192 178 175 187 193 206 228 228 226 233 246 248 243 241 244 248 251 252 253 259 264 269 272 272 272 274 277 284 288 287 284 282 280 279 277 277 279 281 281 278 276 276 276 275 277 276 271 269 270 271 271 269 268 279 291 293 292 293 298 302 301 290 279 277 272 253 243 249 257
262 257 255 243 207 189 193 202 207 203 196 193 192 195 203 205 196 184 171 177 196 214 248 241 239 247 251 242 236 237 238 238 242 246 249 255 258 261 264 268 273 277 281 285 286 285 286 287 284 280 276 275 278 282 283 282 279 276 272 272 274 271 265 265 269 270 269 265 263 267 281 290 294 298 305 312 308 297 294 288 257 222 247 274 279
Height
809 810 813 814 814 815 816 816 817 820 821 820 820 820 822 825 826 826 826 825 825 827 828 829 830 829 829 829 830 830 831 832 832 833 833 832 833 833 834 835 836 836 837 837 838 839 840 841 842 842 842 843 843 844 845 846 846 846 847 847 846 847 847 847 848 848 848 848 848 848 848 847 846 846 846 845 845 845 845 845 845 845 845 846 846
809 809 813 816 817 816 816 816 817 819 819 819 819 819 822 825 826 826 826 826 826 827 828 829 830 830 830 830 830 830 831 832 832 833 833 833 833 834 835 835 836 837 837 837 837 838 839 840 841 842 842 843 843 844 845 846 846 847 847 847 847 847 847 848 848 848 848 848 849 849 848 848 847 847 846 846 846 846 846 846 846 846 846 846 847
808 810 816 820 819 816 815 816 818 819 819 819 820 821 823 825 827 827 827 827 827 828 829 830 830 830 830 830 830 830 831 832 832 833 834 834 834 834 835 835 836 836 837 837 837 837 838 839 840 841 842 843 843 844 845 845 846 847 847 847 847 847 847 848 848 848 849 849 849 849 849 849 848 848 847 847 847 846 846 847 847 847 847 847 847
808 811 817 819 817 816 816 818 819 819 819 820 821 822 823 825 827 828 827 827 827 828 829 830 829 830 830 830 830 831 831 832 832 833 834 834 834 834 835 835 835 836 836 837 837 838 838 839 839 840 841 842 843 844 844 845 846 846 847 847 847 847 848 848 848 848 848 849 849 849 849 849 849 849 848 848 847 847 847 847 847 847 848 848 848
807 809 813 815 815 815 817 818 819 819 820 820 821 822 822 824 826 827 827 827 827 828 829 829 829 829 830 830 830 830 830 831 831 832 833 834 834 834 834 835 835 835 836 836 837 837 838 839 839 840 840 841 842 843 844 844 845 846 846 847 847 847 848 848 848 848 848 848 849 849 850 850 849 849 849 848 848 848 848 848 848 848 848 848 849
806 807 809 812 813 813 816 816 818 819 820 821 821 821 821 822 823 824 826 826 827 828 829 829 830 829 830 830 830 830 830 830 830 831 832 833 834 834 834 834 834 835 836 836 836 837 838 838 839 840 840 841 842 843 843 844 844 845 846 846 846 847 847 848 848 848 848 848 848 849 849 850 850 850 849 849 849 849 849 849 849 849 849 849 849
805 806 807 809 810 812 815 816 817 819 821 821 821 821 820 821 821 822 824 826 827 828 829 830 830 830 830 830 830 831 831 831 830 830 831 832 833 834 834 834 833 834 835 835 836 836 837 838 838 839 840 841 841 842 842 843 844 844 845 845 845 846 847 847 848 848 848 848 848 849 849 849 850 850 850 850 850 849 849 849 849 850 850 850 850
806 806 806 807 808 808 811 814 816 818 820 820 821 820 820 820 821 821 823 824 825 828 830 832 831 831 831 831 831 831 831 831 831 831 831 831 832 832 833 833 833 833 833 834 835 835 836 837 838 838 839 840 840 841 842 842 843 843 844 845 845 845 846 847 847 848 848 848 848 848 849 849 849 850 850 850 850 850 850 850 850 850 850 850 850
808 807 806 807 807 806 808 812 815 816 818 819 819 819 818 819 820 821 822 823 823 826 830 832 832 832 832 832 831 831 831 831 831 831 831 831 831 831 832 833 833 833 832 832 833 834 835 836 837 838 838 839 840 840 841 841 842 843 843 844 844 845 845 846 846 847 847 847 848 848 848 849 849 849 850 850 850 850 850 850 850 851 851 851 851
808 808 807 808 808 808 809 812 814 816 817 817 817 818 818 819 821 822 822 822 823 825 830 833 833 834 833 832 831 830 830 830 830 830 831 831 831 831 831 832 833 833 832 832 832 833 834 835 836 837 837 838 839 839 840 841 841 842 843 843 843 844 844 845 845 846 846 846 847 847 848 848 849 849 850 850 850 851 851 851 851 851 851 851 852
808 808 808 809 810 810 812 813 815 817 817 817 817 817 818 819 820 821 821 822 823 826 829 831 832 833 833 832 830 830 830 828 828 829 829 830 830 830 830 830 831 831 832 832 832 831 832 833 834 835 836 837 838 838 839 839 840 841 842 842 842 843 843 844 844 845 845 845 846 846 847 848 848 849 849 850 850 851 851 851 851 851 851 852 852
808 808 808 809 810 812 813 813 814 815 817 817 817 817 817 817 819 821 821 822 823 824 826 827 829 830 831 831 831 830 830 828 828 828 828 828 829 829 829 829 829 829 830 831 831 831 831 831 833 834 834 835 836 837 837 838 838 839 840 841 841 842 842 843 843 844 844 844 845 846 846 847 847 848 849 849 850 850 850 851 851 851 851 851 852
808 808 809 809 810 812 813 813 813 814 815 816 816 816 816 816 818 820 821 821 821 822 824 826 828 829 829 830 830 829 829 829 828 828 828 828 828 827 828 828 828 828 829 829 830 831 830 830 831 832 832 833 834 835 835 836 837 837 838 839 839 840 841 841 842 842 843 843 844 844 845 846 846 847 848 848 849 849 850 850 850 851 851 851 852
808 809 809 809 809 811 811 812 813 812 813 814 815 815 816 816 817 819 820 820 820 821 823 824 826 827 827 828 828 828 828 828 828 827 827 827 827 826 826 826 827 827 828 828 829 830 830 829 830 830 830 831 832 832 833 834 835 835 836 837 837 838 839 840 840 841 842 842 842 843 844 844 845 846 846 847 848 848 849 850 850 850 851 851 851
809 809 809 809 809 809 810 811 812 812 812 813 814 814 815 815 816 818 819 819 819 820 822 823 824 825 827 828 828 828 828 828 827 827 827 827 827 825 825 825 826 827 827 828 828 828 828 828 829 829 829 830 830 830 831 832 833 833 834 835 835 836 837 838 839 839 840 840 841 842 842 843 844 844 845 846 846 847 848 849 849 850 850 850 851
809 809 809 809 809 809 810 810 811 811 812 812 813 814 814 815 816 817 818 819 819 820 821 822 823 825 826 827 827 828 829 828 827 827 826 827 826 825 824 825 826 827 827 827 827 827 827 828 827 828 828 828 829 829 829 830 831 831 832 833 833 834 835 836 837 838 838 839 839 840 840 841 842 843 843 844 845 846 847 847 848 849 849 849 850
810 810 810 810 810 810 810 811 811 811 811 812 812 813 814 815 817 818 819 819 819 820 820 821 822 823 824 826 828 829 829 827 828 828 826 826 826 825 824 824 824 825 825 826 826 825 826 827 827 827 826 827 827 828 828 829 829 830 831 831 832 833 834 835 835 836 837 837 838 838 839 840 840 841 841 842 843 844 845 846 847 847 848 849 849
811 812 812 812 812 811 811 811 811 811 811 811 812 814 815 816 817 818 819 819 819 819 820 820 822 822 824 826 827 828 828 827 829 829 827 826 826 825 824 824 824 824 824 825 825 825 825 825 825 825 825 826 826 826 827 827 828 829 830 830 831 832 832 833 834 834 835 835 836 836 837 838 838 839 840 841 842 842 843 844 845 846 847 847 848
812 812 812 813 813 812 812 811 812 811 812 812 813 814 815 816 817 818 819 819 819 820 820 821 823 823 824 825 825 826 827 828 829 829 828 827 826 825 825 824 824 824 823 823 824 823 823 823 824 824 824 824 824 825 825 825 826 827 828 829 830 831 831 831 832 832 833 833 834 834 835 836 836 837 838 839 840 841 842 842 843 844 845 846 846
812 812 813 813 813 813 813 813 813 813 813 814 815 815 816 817 818 819 820 820 820 821 821 822 824 825 825 825 826 826 827 828 828 828 828 827 826 825 825 824 823 823 823 822 822 822 822 821 822 822 822 822 822 823 823 824 824 825 826 827 827 829 829 829 830 830 830 831 832 832 833 834 835 835 836 837 838 839 840 840 841 842 843 844 844
813 813 814 814 814 814 814 814 814 814 815 816 816 817 818 819 819 820 820 820 821 822 822 824 825 825 825 825 826 826 827 827 827 827 827 827 826 824 824 823 823 822 822 821 821 821 821 820 820 821 821 821 821 822 821 822 822 823 824 824 825 826 827 827 828 828 829 829 830 831 831 832 833 833 834 835 836 837 837 838 839 839 841 842 843
813 814 814 815 815 816 816 816 816 816 816 817 817 818 819 820 820 820 821 821 822 822 823 824 825 825 825 826 826 826 827 827 827 827 826 825 825 823 823 823 822 821 820 820 820 820 819 819 819 819 820 820 820 820 820 820 821 821 822 823 823 824 824 825 825 826 827 827 828 828 829 830 831 831 832 833 833 834 835 836 837 837 838 839 840
814 814 815 815 816 816 817 817 817 817 818 818 819 819 820 820 821 821 822 822 823 823 824 824 825 826 826 826 827 827 827 827 827 826 825 824 824 824 823 823 822 821 820 819 819 819 819 818 818 818 818 818 818 819 819 819 820 820 820 821 821 821 822 823 823 824 825 825 825 826 826 827 828 829 830 830 831 832 832 833 834 835 836 837 838
814 814 815 815 816 816 817 818 818 819 819 819 820 820 821 821 822 822 822 823 823 824 824 825 825 826 826 827 827 827 827 827 827 827 826 825 825 825 824 823 822 821 820 819 818 818 817 817 816 816 816 816 816 817 818 819 819 819 820 820 820 820 820 821 822 822 823 823 823 823 824 824 825 826 827 828 828 829 830 831 832 833 834 835 836
813 814 815 816 816 817 818 818 819 819 820 820 821 821 822 822 822 823 823 824 824 824 825 825 826 826 827 827 827 828 828 828 828 827 827 827 826 825 824 824 823 822 820 819 817 817 816 816 815 815 815 815 815 816 817 818 818 819 819 818 818 818 819 820 820 820 821 821 821 821 822 822 822 823 824 825 826 827 829 829 830 830 831 832 834
813 814 815 816 817 818 818 819 819 820 821 821 822 822 823 823 824 824 824 825 825 825 825 826 826 826 827 827 828 828 828 828 828 828 828 827 827 827 826 825 824 822 820 818 817 816 815 815 814 814 814 814 815 816 816 817 818 818 818 817 817 817 818 818 818 818 819 819 819 820 820 820 820 820 821 822 823 824 825 826 827 828 828 829 831
811 813 814 816 817 818 818 819 820 820 821 822 822 823 824 824 825 825 825 826 826 826 826 826 827 827 827 828 828 828 828 828 828 828 828 828 828 828 828 827 825 823 820 818 817 816 815 815 814 815 815 815 816 817 817 817 817 817 816 816 816 816 816 817 817 817 817 817 817 818 818 818 818 818 819 819 820 821 822 823 824 825 826 827 828
810 812 814 815 816 817 818 819 820 820 821 822 822 823 824 824 825 825 825 826 826 826 827 827 827 827 827 828 828 828 828 828 828 828 828 828 828 829 828 828 827 825 823 820 818 817 816 815 814 814 816 816 816 817 817 816 816 816 816 816 816 815 815 815 815 815 815 815 815 816 816 816 816 816 817 817 817 818 819 819 820 822 823 824 825
810 811 813 815 816 817 818 819 819 820 821 822 822 823 823 824 824 825 826 826 827 827 827 828 828 828 828 828 829 829 829 829 829 828 828 828 828 828 828 827 827 827 826 825 822 820 818 817 816 815 815 816 816 816 816 816 816 816 816 815 815 815 814 814 815 814 814 814 814 814 814 814 815 815 815 815 815 816 816 817 818 819 819 821 822
809 811 813 815 816 817 818 819 819 820 821 821 822 822 823 824 824 825 825 826 827 827 828 828 828 829 829 829 829 829 829 829 829 829 828 828 828 827 827 827 826 826 826 827 825 822 820 819 818 817 816 815 815 815 815 816 815 815 815 814 814 814 814 814 814 813 813 813 813 813 813 813 813 813 813 813 813 814 814 814 815 816 816 817 819
810 812 814 815 817 818 819 819 820 820 821 821 822 822 823 823 824 825 825 826 827 827 828 828 828 829 829 829 830 829 829 829 829 829 829 829 828 828 827 826 826 826 826 827 826 823 821 820 819 818 817 816 815 814 814 814 814 813 813 813 813 813 813 812 812 812 811 811 811 811 811 811 811 811 811 811 811 811 812 812 813 813 814 815 816
809 811 814 815 816 818 818 819 819 820 821 821 821 822 823 823 824 824 825 826 826 827 827 828 828 829 829 829 830 830 830 829 829 829 829 829 828 828 827 827 826 826 826 826 826 823 822 822 820 818 818 817 815 815 814 813 813 813 812 812 812 811 811 811 811 810 810 809 809 808 808 809 809 809 809 809 809 809 810 810 810 811 812 812 813
809 811 813 814 815 817 817 818 818 819 820 820 821 822 822 823 823 824 824 825 826 826 827 827 828 828 829 829 829 829 829 829 829 829 829 828 828 827 827 827 826 826 826 826 826 824 822 822 821 819 818 817 816 815 814 813 812 812 811 811 811 810 810 809 808 808 808 807 807 807 806 806 806 806 806 806 807 807 807 808 808 809 809 810 811
808 810 812 813 814 815 816 817 818 818 819 820 821 821 822 823 823 824 824 824 825 825 826 827 827 828 828 828 828 828 829 829 828 828 828 827 827 827 827 827 827 827 826 826 826 824 822 822 821 820 818 817 816 815 814 813 812 811 811 810 810 809 809 808 807 806 806 805 805 805 804 804 804 804 804 804 805 805 805 806 806 807 807 807 808
808 810 811 812 813 814 815 816 816 817 819 819 820 820 821 821 822 823 823 824 824 824 824 825 826 826 827 827 827 827 828 828 828 827 827 827 827 827 826 827 827 826 826 826 825 824 822 821 820 819 818 817 816 814 814 813 812 811 810 810 809 808 807 806 805 804 803 803 803 802 802 802 802 802 802 802 802 802 803 803 803 804 804 804 804
810 811 812 812 813 814 814 814 815 816 817 818 819 819 819 820 821 821 822 823 823 823 823 824 824 824 825 826 826 826 826 827 827 827 827 827 826 826 826 826 826 826 825 825 824 824 822 820 819 818 817 816 815 814 813 812 811 810 809 808 808 807 806 805 804 802 801 801 800 800 799 799 799 799 799 799 800 800 800 800 800 800 801 801 801
809 811 812 813 815 814 814 814 814 814 814 815 817 818 819 820 820 820 821 821 822 822 822 823 823 823 823 824 825 825 825 826 826 826 826 826 826 826 825 825 825 825 824 824 823 823 822 820 818 817 816 815 814 812 812 811 809 809 808 807 806 806 804 803 802 800 799 798 798 797 796 796 796 796 797 797 797 797 797 797 797 797 797 798 798
807 810 813 815 815 815 815 815 813 812 812 813 814 816 818 819 818 819 819 820 821 821 822 822 822 822 822 823 823 824 824 825 825 825 825 825 825 825 825 825 824 824 823 823 823 822 821 820 818 817 815 814 813 812 811 810 808 807 806 805 805 804 803 801 800 798 797 796 795 794 794 793 793 793 793 794 794 794 794 794 794 794 794 794 795
806 809 810 812 813 814 815 814 812 811 810 811 812 813 814 816 817 817 818 818 819 820 821 821 821 821 821 822 823 823 824 824 824 824 824 824 825 825 825 825 824 824 823 822 822 821 820 819 818 816 815 813 812 811 810 809 808 807 806 804 802 802 801 800 798 797 795 794 792 792 791 790 790 789 789 789 790 791 791 791 790 790 790 791 791
804 806 807 808 809 810 811 811 810 809 808 809 809 810 811 813 815 815 816 816 816 817 819 820 821 821 821 821 822 823 823 823 823 823 823 823 824 824 824 824 824 823 823 822 822 821 820 819 817 816 814 813 811 810 809 808 807 806 805 803 801 800 799 798 797 796 794 793 791 789 788 787 787 786 786 786 787 787 788 788 788 787 787 787 788
802 804 804 805 806 807 806 806 807 807 806 806 806 806 807 809 811 812 813 814 814 815 817 818 820 820 821 821 821 822 822 822 823 823 822 822 823 823 823 823 823 823 822 822 822 821 820 819 817 816 814 813 811 810 808 807 806 805 804 803 801 799 799 797 796 795 794 792 790 788 787 786 784 783 783 783 784 784 784 784 784 784 784 785 785
799 800 801 802 803 803 802 803 804 804 803 803 803 803 804 805 807 809 811 812 813 813 814 816 817 818 819 820 820 820 821 821 822 822 822 821 821 822 822 822 822 822 822 822 821 821 821 819 817 816 814 812 811 810 809 807 806 805 803 802 800 799 798 796 794 794 792 791 789 787 786 785 784 782 781 781 781 782 781 781 781 781 781 782 782
796 797 798 798 799 799 799 801 802 801 800 800 801 801 802 802 804 807 810 812 813 813 814 815 816 817 818 818 819 819 819 820 820 821 821 820 819 820 821 821 821 821 821 821 820 820 820 819 817 816 814 812 811 810 809 807 806 804 803 802 800 799 797 795 793 792 791 790 788 785 784 783 782 781 780 780 780 780 779 779 779 779 779 779 780
794 795 795 796 796 797 797 798 798 797 797 798 798 799 800 802 803 805 808 810 812 813 815 815 816 817 817 817 817 817 817 818 819 820 820 820 818 818 819 819 819 819 819 819 819 819 818 818 817 816 814 813 811 810 809 807 805 804 802 802 800 799 797 796 794 792 791 790 789 786 783 782 781 780 779 779 778 777 777 777 778 778 778 777 778
794 794 794 795 795 796 795 795 795 794 795 796 796 797 798 800 801 803 805 807 809 812 814 814 815 815 815 816 816 816 816 816 817 818 819 819 817 816 817 817 817 817 817 817 817 817 816 816 815 814 813 813 811 809 809 807 806 804 802 801 800 799 798 797 794 792 791 791 790 787 783 782 781 780 778 778 778 777 776 776 776 776 776 775 775
793 793 793 794 794 795 794 793 792 792 793 795 796 796 796 797 799 801 803 806 808 811 812 813 813 813 814 815 815 815 815 814 815 817 818 818 816 815 815 815 816 816 815 815 815 815 814 814 812 811 811 811 810 808 808 807 805 804 802 801 800 799 798 796 794 792 790 791 791 787 782 781 782 781 778 777 778 776 774 774 774 774 773 773 773
792 791 792 792 792 793 793 792 792 792 794 795 795 795 795 796 798 800 803 806 807 809 810 811 812 813 813 814 814 813 813 813 814 816 816 816 815 814 814 814 814 814 814 814 813 812 812 811 810 809 809 809 808 807 807 806 804 803 802 801 800 799 797 794 792 790 789 790 791 788 782 781 782 781 777 777 777 775 773 771 771 771 771 771 771
790 790 790 790 790 791 792 791 791 793 794 794 795 796 796 797 798 800 803 804 806 807 809 810 812 812 813 813 813 812 812 812 813 814 814 814 814 813 813 812 812 812 811 812 811 810 810 809 808 807 806 806 806 805 804 803 802 801 800 798 798 798 796 793 791 789 788 788 789 788 782 780 781 780 776 776 776 774 772 770 769 770 769 769 769
788 788 788 789 789 790 790 790 790 792 794 795 795 796 797 797 799 801 802 803 805 807 809 810 811 811 813 813 812 811 811 810 810 811 812 812 812 811 811 810 810 809 809 809 809 808 808 807 806 805 804 804 803 802 801 801 800 800 798 795 795 796 795 792 789 788 787 787 788 787 782 779 779 778 776 774 774 772 771 769 768 768 767 767 767
786 786 787 787 788 788 788 789 790 791 793 794 796 797 797 798 799 801 802 803 805 807 808 809 810 810 811 811 811 811 810 809 808 808 809 810 810 809 809 808 808 807 806 807 806 806 805 804 803 803 801 801 800 798 797 797 797 797 795 793 793 794 792 790 788 786 785 784 785 786 782 778 778 778 776 774 772 770 770 767 766 766 765 765 765
784 785 785 786 786 786 787 789 790 791 793 794 796 797 797 798 799 801 802 804 805 807 808 808 809 808 808 808 808 809 808 807 806 806 807 807 808 808 807 806 805 805 805 804 804 803 802 801 800 799 798 797 797 795 794 794 794 794 793 791 791 791 789 788 787 785 782 781 783 785 782 778 778 778 776 775 773 770 769 767 765 765 765 765 765